| time (UTC) | temp F | wind direction | speed MPH | gust MPH | rain 1hr in | rain 24hr in | rain mn in | humidity % | barometer mb |
| 20260906073003 | 76 | 58 | 5.0 | 16.0 | 0.00 | 0.00 | 0.00 | 97 | 1014.0 |
| 20260906072503 | 76 | 90 | 4.0 | 16.0 | 0.00 | 0.00 | 0.00 | 97 | 1013.8 |
| 20260906072003 | 76 | 37 | 4.0 | 16.0 | 0.00 | 0.00 | 0.00 | 97 | 1014.0 |
| 20260906071504 | 76 | 58 | 3.0 | 17.0 | 0.00 | 0.00 | 0.00 | 97 | 1014.1 |
| 20260906071003 | 77 | 18 | 6.0 | 19.0 | 0.00 | 0.00 | 0.00 | 97 | 1014.1 |
| 20260906070503 | 77 | 3 | 8.0 | 19.0 | 0.00 | 0.00 | 0.00 | 98 | 1014.0 |
| 20260906070025 | 77 | 19 | 4.0 | 7.0 | 0.00 | 0.00 | 0.00 | 98 | 1013.8 |
| 20260906065503 | 77 | 64 | 1.0 | 7.0 | 0.00 | 0.00 | 0.00 | 99 | 1013.4 |
| 20260906065004 | 76 | 104 | 1.0 | 8.0 | 0.00 | 0.00 | 0.00 | 100 | 1013.4 |
| 20260906064525 | 76 | 94 | 3.0 | 8.0 | 0.00 | 0.00 | 0.00 | 100 | 1013.3 |
| 20260906064004 | 76 | 88 | 1.0 | 7.0 | 0.00 | 0.00 | 0.00 | 100 | 1013.3 |
| 20260906063505 | 76 | 140 | 0.0 | 3.0 | 0.00 | 0.00 | 0.00 | 100 | 1013.2 |
| 20260906063003 | 76 | 140 | 0.0 | 3.0 | 0.00 | 0.00 | 0.00 | 100 | 1012.9 |
| 20260906062503 | 76 | 140 | 0.0 | 3.0 | 0.00 | 0.00 | 0.00 | 100 | 1013.0 |
| 20260906062003 | 76 | 150 | 0.0 | 0.0 | 0.00 | 0.00 | 0.00 | 100 | 1013.2 |
| 20260906061503 | 76 | 150 | 0.0 | 3.0 | 0.00 | 0.00 | 0.00 | 100 | 1013.2 |
| 20260906061003 | 76 | 187 | 1.0 | 3.0 | 0.00 | 0.00 | 0.00 | 100 | 1013.4 |
| 20260906060503 | 76 | 82 | 0.0 | 5.0 | 0.00 | 0.00 | 0.00 | 100 | 1013.3 |
| 20260906060005 | 76 | 82 | 0.0 | 5.0 | 0.00 | 0.00 | 0.00 | 100 | 1013.3 |
| 20260906055503 | 76 | 94 | 0.0 | 5.0 | 0.00 | 0.00 | 0.00 | 100 | 1013.1 |
| 20260906055003 | 76 | 72 | 0.0 | 3.0 | 0.00 | 0.00 | 0.00 | 100 | 1013.2 |
| 20260906054503 | 76 | 81 | 0.0 | 6.0 | 0.00 | 0.00 | 0.00 | 100 | 1013.3 |
| 20260906054003 | 76 | 152 | 1.0 | 6.0 | 0.00 | 0.00 | 0.00 | 100 | 1013.5 |
| 20260906053504 | 76 | 94 | 1.0 | 6.0 | 0.00 | 0.00 | 0.00 | 100 | 1013.7 |
| 20260906053004 | 76 | 230 | 0.0 | 6.0 | 0.00 | 0.00 | 0.00 | 100 | 1013.3 |
| 20260906052504 | 76 | 203 | 3.0 | 7.0 | 0.00 | 0.00 | 0.00 | 100 | 1013.1 |
| 20260906052004 | 76 | 216 | 0.0 | 7.0 | 0.00 | 0.00 | 0.00 | 100 | 1013.0 |
| 20260906051503 | 76 | 194 | 2.0 | 6.0 | 0.00 | 0.00 | 0.00 | 99 | 1012.9 |
| 20260906051003 | 76 | 178 | 1.0 | 6.0 | 0.00 | 0.00 | 0.00 | 99 | 1012.9 |
| 20260906050504 | 76 | 39 | 0.0 | 0.0 | 0.00 | 0.00 | 0.00 | 99 | 1012.8 |
| 20260906050004 | 76 | 39 | 0.0 | 0.0 | 0.00 | 0.00 | 0.00 | 98 | 1012.9 |
| 20260906045504 | 76 | 39 | 0.0 | 0.0 | 0.00 | 0.00 | 0.00 | 98 | 1012.9 |
| 20260906045003 | 76 | 39 | 0.0 | 0.0 | 0.00 | 0.00 | 0.00 | 98 | 1013.0 |
| 20260906044503 | 75 | 39 | 0.0 | 0.0 | 0.00 | 0.00 | 0.00 | 98 | 1013.0 |
| 20260906044003 | 75 | 39 | 0.0 | 0.0 | 0.00 | 0.00 | 0.00 | 98 | 1013.1 |
| 20260906043503 | 75 | 39 | 0.0 | 0.0 | 0.00 | 0.00 | 0.00 | 98 | 1013.2 |
| 20260906042503 | 74 | 39 | 0.0 | 0.0 | 0.00 | 0.00 | 0.00 | 98 | 1013.3 |
| 20260906042004 | 75 | 39 | 0.0 | 0.0 | 0.00 | 0.00 | 0.00 | 98 | 1013.3 |
| 20260906041503 | 75 | 39 | 0.0 | 0.0 | 0.00 | 0.00 | 0.00 | 97 | 1013.3 |
| 20260906041005 | 75 | 39 | 0.0 | 0.0 | 0.00 | 0.00 | 0.00 | 97 | 1013.2 |
| 20260906040524 | 75 | 39 | 0.0 | 0.0 | 0.00 | 0.00 | 0.00 | 97 | 1013.2 |
| 20260906040004 | 75 | 39 | 0.0 | 0.0 | 0.00 | 0.00 | 0.00 | 96 | 1013.2 |
| 20260906035504 | 75 | 39 | 0.0 | 0.0 | 0.00 | 0.00 | 0.00 | 96 | 1013.2 |
| 20260906035005 | 75 | 39 | 0.0 | 0.0 | 0.00 | 0.00 | 0.00 | 96 | 1013.3 |
| 20260906034502 | 75 | 39 | 0.0 | 0.0 | 0.00 | 0.00 | 0.00 | 95 | 1013.3 |
| 20260906034004 | 75 | 39 | 0.0 | 0.0 | 0.00 | 0.00 | 0.00 | 95 | 1013.3 |
| 20260906033503 | 75 | 39 | 0.0 | 0.0 | 0.00 | 0.00 | 0.00 | 94 | 1013.3 |
| 20260906033003 | 75 | 39 | 0.0 | 0.0 | 0.00 | 0.00 | 0.00 | 94 | 1013.3 |
| 20260906032504 | 76 | 39 | 0.0 | 0.0 | 0.00 | 0.00 | 0.00 | 94 | 1013.3 |
| 20260906032003 | 76 | 39 | 0.0 | 0.0 | 0.00 | 0.00 | 0.00 | 93 | 1013.3 |
| 20260906031503 | 76 | 39 | 0.0 | 0.0 | 0.00 | 0.00 | 0.00 | 93 | 1013.2 |
| 20260906031004 | 76 | 39 | 0.0 | 0.0 | 0.00 | 0.00 | 0.00 | 93 | 1013.2 |
| 20260906030503 | 76 | 39 | 0.0 | 0.0 | 0.00 | 0.00 | 0.00 | 93 | 1013.2 |
| 20260906030024 | 76 | 39 | 0.0 | 0.0 | 0.00 | 0.00 | 0.00 | 92 | 1013.3 |
| 20260906025503 | 76 | 39 | 0.0 | 0.0 | 0.00 | 0.00 | 0.00 | 91 | 1013.3 |
| 20260906025003 | 77 | 39 | 0.0 | 0.0 | 0.00 | 0.00 | 0.00 | 91 | 1013.2 |
| 20260906024504 | 76 | 39 | 0.0 | 0.0 | 0.00 | 0.00 | 0.00 | 91 | 1013.1 |
| 20260906024004 | 77 | 39 | 0.0 | 0.0 | 0.00 | 0.00 | 0.00 | 91 | 1013.2 |
| 20260906023503 | 77 | 39 | 0.0 | 0.0 | 0.00 | 0.00 | 0.00 | 90 | 1013.0 |
| 20260906023003 | 77 | 39 | 0.0 | 0.0 | 0.00 | 0.00 | 0.00 | 89 | 1012.9 |
| 20260906022504 | 77 | 39 | 0.0 | 0.0 | 0.00 | 0.00 | 0.00 | 89 | 1012.8 |
| 20260906022003 | 77 | 39 | 0.0 | 0.0 | 0.00 | 0.00 | 0.00 | 88 | 1012.8 |
| 20260906021504 | 77 | 39 | 0.0 | 0.0 | 0.00 | 0.00 | 0.00 | 88 | 1012.7 |
| 20260906020504 | 77 | 39 | 0.0 | 0.0 | 0.00 | 0.00 | 0.00 | 87 | 1012.6 |
| 20260906020003 | 78 | 39 | 0.0 | 0.0 | 0.00 | 0.00 | 0.00 | 86 | 1012.5 |
| 20260906015503 | 78 | 39 | 0.0 | 0.0 | 0.00 | 0.00 | 0.00 | 85 | 1012.4 |
| 20260906015003 | 78 | 39 | 0.0 | 0.0 | 0.00 | 0.00 | 0.00 | 85 | 1012.4 |
| 20260906014525 | 78 | 39 | 0.0 | 0.0 | 0.00 | 0.00 | 0.00 | 84 | 1012.4 |
| 20260906014003 | 78 | 39 | 0.0 | 0.0 | 0.00 | 0.00 | 0.00 | 84 | 1012.2 |
| 20260906013503 | 78 | 39 | 0.0 | 0.0 | 0.00 | 0.00 | 0.00 | 83 | 1012.1 |
| 20260906013003 | 78 | 39 | 0.0 | 0.0 | 0.00 | 0.00 | 0.00 | 83 | 1012.1 |
| 20260906012503 | 79 | 39 | 0.0 | 0.0 | 0.00 | 0.00 | 0.00 | 83 | 1012.2 |
| 20260906012003 | 79 | 39 | 0.0 | 0.0 | 0.00 | 0.00 | 0.00 | 82 | 1012.1 |
| 20260906011524 | 79 | 39 | 0.0 | 0.0 | 0.00 | 0.00 | 0.00 | 82 | 1012.0 |
| 20260906011024 | 79 | 39 | 0.0 | 0.0 | 0.00 | 0.00 | 0.00 | 81 | 1012.0 |
| 20260906010525 | 80 | 39 | 0.0 | 0.0 | 0.00 | 0.00 | 0.00 | 81 | 1012.0 |
| 20260906010004 | 80 | 39 | 0.0 | 0.0 | 0.00 | 0.00 | 0.00 | 81 | 1011.8 |
| 20260906005525 | 79 | 39 | 0.0 | 0.0 | 0.00 | 0.00 | 0.00 | 81 | 1011.7 |
| 20260906005003 | 80 | 39 | 0.0 | 3.0 | 0.00 | 0.00 | 0.00 | 81 | 1011.6 |
| 20260906004504 | 80 | 56 | 0.0 | 3.0 | 0.00 | 0.00 | 0.00 | 81 | 1011.6 |
| 20260906003524 | 81 | 132 | 0.0 | 3.0 | 0.00 | 0.00 | 0.00 | 80 | 1011.6 |
| 20260906003003 | 81 | 132 | 0.0 | 6.0 | 0.00 | 0.00 | 0.00 | 79 | 1011.7 |
| 20260906002504 | 82 | 91 | 1.0 | 7.0 | 0.00 | 0.00 | 0.00 | 78 | 1011.8 |
| 20260906002024 | 83 | 78 | 3.0 | 7.0 | 0.00 | 0.00 | 0.00 | 77 | 1011.9 |
| 20260906001524 | 83 | 88 | 0.0 | 7.0 | 0.00 | 0.00 | 0.00 | 76 | 1012.0 |
| 20260906001003 | 84 | 104 | 2.0 | 7.0 | 0.00 | 0.00 | 0.00 | 77 | 1012.1 |
| 20260906000503 | 84 | 120 | 2.0 | 11.0 | 0.00 | 0.00 | 0.00 | 76 | 1012.2 |
| 20260906000045 | 85 | 130 | 2.0 | 15.0 | 0.00 | 0.00 | 0.00 | 74 | 1012.3 |
| 20260905235526 | 86 | 89 | 6.0 | 15.0 | 0.00 | 0.00 | 0.00 | 73 | 1012.4 |
| 20260905235003 | 88 | 95 | 4.0 | 18.0 | 0.00 | 0.00 | 0.00 | 71 | 1012.4 |
| 20260905234503 | 89 | 76 | 4.0 | 18.0 | 0.00 | 0.00 | 0.00 | 68 | 1012.2 |
| 20260905234004 | 90 | 92 | 4.0 | 11.0 | 0.00 | 0.00 | 0.00 | 66 | 1011.9 |
| 20260905233504 | 92 | 334 | 1.0 | 8.0 | 0.00 | 0.00 | 0.00 | 65 | 1011.9 |
| 20260905233004 | 92 | 333 | 2.0 | 8.0 | 0.00 | 0.00 | 0.00 | 64 | 1011.6 |
| 20260905232503 | 93 | 298 | 0.0 | 7.0 | 0.00 | 0.00 | 0.00 | 64 | 1011.5 |
| 20260905232004 | 92 | 358 | 2.0 | 9.0 | 0.00 | 0.00 | 0.00 | 64 | 1011.5 |
| 20260905231525 | 93 | 246 | 4.0 | 11.0 | 0.00 | 0.00 | 0.00 | 64 | 1011.5 |
| 20260905231003 | 93 | 326 | 8.0 | 11.0 | 0.00 | 0.00 | 0.00 | 65 | 1011.4 |
| 20260905230505 | 92 | 320 | 2.0 | 7.0 | 0.00 | 0.00 | 0.00 | 65 | 1011.3 |
| 20260905230003 | 93 | 244 | 1.0 | 6.0 | 0.00 | 0.00 | 0.00 | 64 | 1011.4 |
| 20260905225503 | 93 | 154 | 0.0 | 0.0 | 0.00 | 0.00 | 0.00 | 63 | 1011.3 |
| 20260905225005 | 93 | 154 | 0.0 | 0.0 | 0.00 | 0.00 | 0.00 | 63 | 1011.3 |
| 20260905224503 | 93 | 154 | 0.0 | 0.0 | 0.00 | 0.00 | 0.00 | 63 | 1011.3 |
| 20260905224003 | 94 | 154 | 0.0 | 0.0 | 0.00 | 0.00 | 0.00 | 63 | 1011.3 |
| 20260905223505 | 94 | 154 | 0.0 | 0.0 | 0.00 | 0.00 | 0.00 | 62 | 1011.3 |
| 20260905223004 | 94 | 154 | 0.0 | 3.0 | 0.00 | 0.00 | 0.00 | 61 | 1011.3 |
| 20260905222504 | 95 | 119 | 1.0 | 3.0 | 0.00 | 0.00 | 0.00 | 61 | 1011.3 |
| 20260905222004 | 95 | 277 | 0.0 | 2.0 | 0.00 | 0.00 | 0.00 | 61 | 1011.3 |
| 20260905221503 | 95 | 278 | 0.0 | 3.0 | 0.00 | 0.00 | 0.00 | 60 | 1011.4 |
| 20260905221003 | 94 | 278 | 0.0 | 6.0 | 0.00 | 0.00 | 0.00 | 60 | 1011.3 |
| 20260905220526 | 94 | 266 | 1.0 | 6.0 | 0.00 | 0.00 | 0.00 | 60 | 1011.4 |
| 20260905220004 | 94 | 284 | 0.0 | 3.0 | 0.00 | 0.00 | 0.00 | 62 | 1011.4 |
| 20260905215503 | 93 | 284 | 0.0 | 3.0 | 0.00 | 0.00 | 0.00 | 62 | 1011.4 |
| 20260905215003 | 93 | 352 | 0.0 | 0.0 | 0.00 | 0.00 | 0.00 | 63 | 1011.4 |
| 20260905214504 | 93 | 352 | 0.0 | 0.0 | 0.00 | 0.00 | 0.00 | 62 | 1011.4 |
| 20260905214003 | 93 | 352 | 0.0 | 5.0 | 0.00 | 0.00 | 0.00 | 61 | 1011.5 |
| 20260905213525 | 94 | 340 | 0.0 | 7.0 | 0.00 | 0.00 | 0.00 | 60 | 1011.5 |
| 20260905213003 | 95 | 342 | 3.0 | 7.0 | 0.00 | 0.00 | 0.00 | 59 | 1011.5 |
| 20260905212503 | 95 | 313 | 2.0 | 6.0 | 0.00 | 0.00 | 0.00 | 58 | 1011.4 |
| 20260905212004 | 95 | 358 | 0.0 | 6.0 | 0.00 | 0.00 | 0.00 | 58 | 1011.4 |
| 20260905211504 | 96 | 348 | 2.0 | 6.0 | 0.00 | 0.00 | 0.00 | 58 | 1011.5 |
| 20260905211005 | 95 | 84 | 0.0 | 6.0 | 0.00 | 0.00 | 0.00 | 58 | 1011.4 |
| 20260905210504 | 95 | 326 | 0.0 | 8.0 | 0.00 | 0.00 | 0.00 | 58 | 1011.3 |
| 20260905210003 | 96 | 358 | 2.0 | 9.0 | 0.00 | 0.00 | 0.00 | 58 | 1011.3 |
| 20260905205503 | 95 | 337 | 6.0 | 9.0 | 0.00 | 0.00 | 0.00 | 58 | 1011.4 |
| 20260905205003 | 95 | 18 | 1.0 | 8.0 | 0.00 | 0.00 | 0.00 | 59 | 1011.5 |
| 20260905204504 | 95 | 319 | 0.0 | 8.0 | 0.00 | 0.00 | 0.00 | 58 | 1011.5 |
| 20260905204004 | 95 | 303 | 3.0 | 6.0 | 0.00 | 0.00 | 0.00 | 57 | 1011.6 |
| 20260905203504 | 95 | 74 | 0.0 | 4.0 | 0.00 | 0.00 | 0.00 | 57 | 1011.7 |
| 20260905203002 | 95 | 74 | 0.0 | 4.0 | 0.00 | 0.00 | 0.00 | 58 | 1011.8 |
| 20260905202503 | 96 | 36 | 0.0 | 9.0 | 0.00 | 0.00 | 0.00 | 57 | 1011.8 |
| 20260905202003 | 95 | 18 | 2.0 | 10.0 | 0.00 | 0.00 | 0.00 | 57 | 1011.8 |
| 20260905201524 | 95 | 353 | 2.0 | 10.0 | 0.00 | 0.00 | 0.00 | 58 | 1011.9 |
| 20260905201003 | 95 | 349 | 4.0 | 10.0 | 0.00 | 0.00 | 0.00 | 58 | 1012.0 |
| 20260905200524 | 95 | 329 | 0.0 | 7.0 | 0.00 | 0.00 | 0.00 | 60 | 1012.2 |
| 20260905200003 | 95 | 339 | 3.0 | 7.0 | 0.00 | 0.00 | 0.00 | 60 | 1012.3 |
| 20260905195503 | 94 | 66 | 0.0 | 5.0 | 0.00 | 0.00 | 0.00 | 60 | 1012.4 |
| 20260905195004 | 94 | 311 | 3.0 | 7.0 | 0.00 | 0.00 | 0.00 | 61 | 1012.4 |
| 20260905194525 | 94 | 325 | 1.0 | 7.0 | 0.00 | 0.00 | 0.00 | 61 | 1012.4 |
| 20260905194003 | 94 | 338 | 2.0 | 8.0 | 0.00 | 0.00 | 0.00 | 61 | 1012.5 |
| 20260905193503 | 94 | 20 | 2.0 | 8.0 | 0.00 | 0.00 | 0.00 | 61 | 1012.5 |
| 20260905193025 | 94 | 326 | 3.0 | 7.0 | 0.00 | 0.00 | 0.00 | 62 | 1012.6 |
| 20260905192504 | 94 | 239 | 1.0 | 6.0 | 0.00 | 0.00 | 0.00 | 63 | 1012.5 |
| 20260905192004 | 94 | 162 | 3.0 | 7.0 | 0.00 | 0.00 | 0.00 | 63 | 1012.6 |
| 20260905191504 | 93 | 44 | 0.0 | 8.0 | 0.00 | 0.00 | 0.00 | 63 | 1012.7 |
| 20260905191003 | 93 | 42 | 2.0 | 9.0 | 0.00 | 0.00 | 0.00 | 63 | 1012.9 |
| 20260905190503 | 94 | 15 | 2.0 | 9.0 | 0.00 | 0.00 | 0.00 | 62 | 1013.0 |
| 20260905190003 | 94 | 19 | 2.0 | 7.0 | 0.00 | 0.00 | 0.00 | 63 | 1013.0 |
| 20260905185503 | 94 | 219 | 1.0 | 6.0 | 0.00 | 0.00 | 0.00 | 63 | 1013.1 |
| 20260905185002 | 94 | 221 | 0.0 | 5.0 | 0.00 | 0.00 | 0.00 | 64 | 1013.2 |
| 20260905184503 | 93 | 68 | 0.0 | 5.0 | 0.00 | 0.00 | 0.00 | 64 | 1013.2 |
| 20260905184003 | 93 | 67 | 1.0 | 8.0 | 0.00 | 0.00 | 0.00 | 64 | 1013.3 |
| 20260905183504 | 93 | 325 | 1.0 | 9.0 | 0.00 | 0.00 | 0.00 | 65 | 1013.4 |
| 20260905183004 | 92 | 333 | 5.0 | 11.0 | 0.00 | 0.00 | 0.00 | 66 | 1013.4 |
| 20260905182526 | 93 | 338 | 7.0 | 11.0 | 0.00 | 0.00 | 0.00 | 65 | 1013.5 |
| 20260905182003 | 92 | 101 | 2.0 | 6.0 | 0.00 | 0.00 | 0.00 | 65 | 1013.4 |
| 20260905181546 | 92 | 187 | 0.0 | 8.0 | 0.00 | 0.00 | 0.00 | 66 | 1013.5 |
| 20260905181003 | 91 | 59 | 0.0 | 9.0 | 0.00 | 0.00 | 0.00 | 67 | 1013.7 |
| 20260905180003 | 91 | 338 | 7.0 | 11.0 | 0.00 | 0.00 | 0.00 | 67 | 1013.7 |
| 20260905175505 | 92 | 9 | 2.0 | 6.0 | 0.00 | 0.00 | 0.00 | 68 | 1013.8 |
| 20260905175004 | 91 | 305 | 0.0 | 0.0 | 0.00 | 0.00 | 0.00 | 69 | 1013.8 |
| 20260905174504 | 91 | 305 | 0.0 | 7.0 | 0.00 | 0.00 | 0.00 | 69 | 1013.8 |
| 20260905174003 | 91 | 301 | 4.0 | 8.0 | 0.00 | 0.00 | 0.00 | 69 | 1013.9 |
| 20260905173503 | 91 | 288 | 3.0 | 8.0 | 0.00 | 0.00 | 0.00 | 69 | 1013.9 |
| 20260905173024 | 91 | 347 | 2.0 | 9.0 | 0.00 | 0.00 | 0.00 | 70 | 1014.0 |
| 20260905172503 | 91 | 312 | 7.0 | 9.0 | 0.00 | 0.00 | 0.00 | 69 | 1014.1 |
| 20260905172003 | 91 | 208 | 1.0 | 8.0 | 0.00 | 0.00 | 0.00 | 69 | 1014.1 |
| 20260905171503 | 91 | 258 | 4.0 | 8.0 | 0.00 | 0.00 | 0.00 | 69 | 1014.2 |
| 20260905171003 | 91 | 161 | 0.0 | 4.0 | 0.00 | 0.00 | 0.00 | 68 | 1014.2 |
| 20260905170503 | 91 | 80 | 0.0 | 7.0 | 0.00 | 0.00 | 0.00 | 70 | 1014.3 |
| 20260905170003 | 91 | 6 | 1.0 | 8.0 | 0.00 | 0.00 | 0.00 | 72 | 1014.3 |
| 20260905165503 | 91 | 334 | 1.0 | 8.0 | 0.00 | 0.00 | 0.00 | 72 | 1014.3 |
| 20260905165003 | 90 | 15 | 0.0 | 8.0 | 0.00 | 0.00 | 0.00 | 73 | 1014.4 |
| 20260905164503 | 90 | 358 | 2.0 | 8.0 | 0.00 | 0.00 | 0.00 | 74 | 1014.4 |
| 20260905164003 | 90 | 76 | 1.0 | 7.0 | 0.00 | 0.00 | 0.00 | 74 | 1014.5 |
| 20260905163503 | 90 | 46 | 0.0 | 8.0 | 0.00 | 0.00 | 0.00 | 74 | 1014.7 |
| 20260905163003 | 90 | 359 | 5.0 | 8.0 | 0.00 | 0.00 | 0.00 | 75 | 1014.7 |
| 20260905162504 | 89 | 312 | 0.0 | 6.0 | 0.00 | 0.00 | 0.00 | 76 | 1014.8 |
| 20260905162003 | 89 | 88 | 0.0 | 9.0 | 0.00 | 0.00 | 0.00 | 77 | 1014.9 |
| 20260905161504 | 89 | 109 | 1.0 | 10.0 | 0.00 | 0.00 | 0.00 | 77 | 1015.0 |
| 20260905161004 | 88 | 337 | 6.0 | 10.0 | 0.00 | 0.00 | 0.00 | 78 | 1015.0 |
| 20260905160504 | 88 | 161 | 0.0 | 5.0 | 0.00 | 0.00 | 0.00 | 79 | 1015.0 |
| 20260905160002 | 88 | 165 | 0.0 | 5.0 | 0.00 | 0.00 | 0.00 | 79 | 1015.1 |
| 20260905155525 | 87 | 219 | 1.0 | 7.0 | 0.00 | 0.00 | 0.00 | 80 | 1015.1 |
| 20260905155024 | 88 | 226 | 1.0 | 7.0 | 0.00 | 0.00 | 0.00 | 81 | 1015.2 |
| 20260905154504 | 87 | 341 | 1.0 | 3.0 | 0.00 | 0.00 | 0.00 | 84 | 1015.2 |
| 20260905154003 | 87 | 248 | 0.0 | 6.0 | 0.00 | 0.00 | 0.00 | 84 | 1015.2 |
| 20260905153503 | 87 | 302 | 4.0 | 7.0 | 0.00 | 0.00 | 0.00 | 85 | 1015.3 |
| 20260905153003 | 86 | 317 | 2.0 | 7.0 | 0.00 | 0.00 | 0.00 | 88 | 1015.2 |
| 20260905152502 | 86 | 317 | 0.0 | 5.0 | 0.00 | 0.00 | 0.00 | 88 | 1015.2 |
| 20260905151503 | 84 | 241 | 2.0 | 6.0 | 0.00 | 0.00 | 0.00 | 92 | 1015.3 |
| 20260905151004 | 84 | 187 | 0.0 | 4.0 | 0.00 | 0.00 | 0.00 | 93 | 1015.2 |
| 20260905150546 | 83 | 298 | 1.0 | 4.0 | 0.00 | 0.00 | 0.00 | 95 | 1015.3 |
| 20260905150004 | 83 | 310 | 0.0 | 5.0 | 0.00 | 0.00 | 0.00 | 96 | 1015.2 |
| 20260905145504 | 82 | 310 | 0.0 | 5.0 | 0.00 | 0.00 | 0.00 | 98 | 1015.2 |
| 20260905145003 | 82 | 271 | 0.0 | 5.0 | 0.00 | 0.00 | 0.00 | 99 | 1015.2 |
| 20260905144503 | 82 | 312 | 1.0 | 4.0 | 0.00 | 0.00 | 0.00 | 100 | 1015.3 |
| 20260905144003 | -31 | 140 | 0.0 | 0.0 | 0.00 | 0.00 | 0.00 | 100 | 1015.4 |
| 20260905143503 | -18 | 140 | 0.0 | 0.0 | 0.00 | 0.00 | 0.00 | 100 | 1015.4 |
| 20260905143003 | -23 | 140 | 0.0 | 0.0 | 0.00 | 0.00 | 0.00 | 100 | 1015.5 |
| 20260905142504 | 0 | 140 | 0.0 | 0.0 | 0.00 | 0.00 | 0.00 | 100 | 1015.5 |
| 20260905142003 | -7 | 140 | 0.0 | 0.0 | 0.00 | 0.00 | 0.00 | 100 | 1015.6 |
| 20260905141504 | 8 | 140 | 0.0 | 0.0 | 0.00 | 0.00 | 0.00 | 100 | 1015.6 |
| 20260905141004 | 14 | 140 | 0.0 | 3.0 | 0.00 | 0.00 | 0.00 | 100 | 1015.7 |
| 20260905140503 | 18 | 140 | 0.0 | 4.0 | 0.00 | 0.00 | 0.00 | 100 | 1015.7 |
| 20260905140004 | 19 | 211 | 2.0 | 4.0 | 0.00 | 0.00 | 0.00 | 100 | 1015.8 |
| 20260905135502 | 20 | 358 | 0.0 | 0.0 | 0.00 | 0.00 | 0.00 | 100 | 1015.8 |
| 20260905135005 | 16 | 358 | 0.0 | 0.0 | 0.00 | 0.00 | 0.00 | 100 | 1015.8 |
| 20260905134503 | 76 | 358 | 0.0 | 0.0 | 0.00 | 0.00 | 0.00 | 100 | 1015.8 |
| 20260905134003 | 76 | 358 | 0.0 | 0.0 | 0.00 | 0.00 | 0.00 | 100 | 1015.8 |
| 20260905133504 | 75 | 358 | 0.0 | 1.0 | 0.00 | 0.00 | 0.00 | 100 | 1015.9 |
| 20260905133003 | 75 | 357 | 0.0 | 1.0 | 0.00 | 0.00 | 0.00 | 100 | 1015.9 |
| 20260905132524 | 74 | 358 | 0.0 | 0.0 | 0.00 | 0.00 | 0.00 | 100 | 1015.9 |
| 20260905132004 | 74 | 358 | 0.0 | 0.0 | 0.00 | 0.00 | 0.00 | 100 | 1015.9 |
| 20260905131524 | 74 | 358 | 0.0 | 0.0 | 0.00 | 0.00 | 0.00 | 100 | 1015.9 |
| 20260905131003 | 74 | 358 | 0.0 | 0.0 | 0.00 | 0.00 | 0.00 | 100 | 1015.9 |
| 20260905130503 | 73 | 358 | 0.0 | 0.0 | 0.00 | 0.00 | 0.00 | 100 | 1015.9 |
| 20260905130025 | 73 | 358 | 0.0 | 0.0 | 0.00 | 0.00 | 0.00 | 100 | 1015.9 |
| 20260905125503 | 72 | 358 | 0.0 | 0.0 | 0.00 | 0.00 | 0.00 | 100 | 1016.0 |
| 20260905125003 | 72 | 358 | 0.0 | 0.0 | 0.00 | 0.00 | 0.00 | 100 | 1015.9 |
| 20260905124505 | 72 | 358 | 0.0 | 0.0 | 0.00 | 0.00 | 0.00 | 100 | 1015.9 |
| 20260905124025 | 72 | 358 | 0.0 | 0.0 | 0.00 | 0.00 | 0.00 | 100 | 1016.0 |
| 20260905123503 | 71 | 358 | 0.0 | 0.0 | 0.00 | 0.00 | 0.00 | 100 | 1016.0 |
| 20260905123003 | 71 | 358 | 0.0 | 0.0 | 0.00 | 0.00 | 0.00 | 100 | 1015.9 |
| 20260905122503 | 71 | 358 | 0.0 | 0.0 | 0.00 | 0.00 | 0.00 | 100 | 1015.9 |
| 20260905122004 | 71 | 358 | 0.0 | 0.0 | 0.00 | 0.00 | 0.00 | 100 | 1016.0 |
| 20260905121503 | 71 | 358 | 0.0 | 0.0 | 0.00 | 0.00 | 0.00 | 100 | 1015.8 |
| 20260905121003 | 71 | 358 | 0.0 | 0.0 | 0.00 | 0.00 | 0.00 | 100 | 1015.7 |
| 20260905120503 | 71 | 358 | 0.0 | 0.0 | 0.00 | 0.00 | 0.00 | 100 | 1015.6 |
| 20260905120004 | 71 | 358 | 0.0 | 0.0 | 0.00 | 0.00 | 0.00 | 100 | 1015.7 |
| 20260905115503 | 71 | 358 | 0.0 | 0.0 | 0.00 | 0.00 | 0.00 | 100 | 1015.6 |
| 20260905115004 | 71 | 358 | 0.0 | 0.0 | 0.00 | 0.00 | 0.00 | 100 | 1015.5 |
| 20260905114503 | 70 | 358 | 0.0 | 0.0 | 0.00 | 0.00 | 0.00 | 100 | 1015.4 |
| 20260905114003 | 71 | 358 | 0.0 | 0.0 | 0.00 | 0.00 | 0.00 | 100 | 1015.2 |
| 20260905113504 | 71 | 358 | 0.0 | 0.0 | 0.00 | 0.00 | 0.00 | 100 | 1015.1 |
| 20260905113004 | 71 | 358 | 0.0 | 0.0 | 0.00 | 0.00 | 0.00 | 100 | 1015.1 |
| 20260905112503 | 70 | 358 | 0.0 | 0.0 | 0.00 | 0.00 | 0.00 | 100 | 1015.2 |
| 20260905112003 | 70 | 358 | 0.0 | 0.0 | 0.00 | 0.00 | 0.00 | 100 | 1015.0 |
| 20260905111504 | 70 | 358 | 0.0 | 0.0 | 0.00 | 0.00 | 0.00 | 100 | 1015.0 |
| 20260905111025 | 70 | 358 | 0.0 | 0.0 | 0.00 | 0.00 | 0.00 | 100 | 1015.0 |
| 20260905110504 | 70 | 358 | 0.0 | 0.0 | 0.00 | 0.00 | 0.00 | 100 | 1014.9 |
| 20260905110004 | 70 | 358 | 0.0 | 0.0 | 0.00 | 0.00 | 0.00 | 100 | 1014.8 |
| 20260905105503 | 71 | 358 | 0.0 | 0.0 | 0.00 | 0.00 | 0.00 | 100 | 1014.8 |
| 20260905105005 | 71 | 358 | 0.0 | 0.0 | 0.00 | 0.00 | 0.00 | 100 | 1014.9 |
| 20260905104503 | 71 | 358 | 0.0 | 0.0 | 0.00 | 0.00 | 0.00 | 100 | 1014.9 |
| 20260905104003 | 71 | 358 | 0.0 | 0.0 | 0.00 | 0.00 | 0.00 | 100 | 1014.8 |
| 20260905103504 | 71 | 358 | 0.0 | 0.0 | 0.00 | 0.00 | 0.00 | 100 | 1014.7 |
| 20260905103003 | 71 | 358 | 0.0 | 0.0 | 0.00 | 0.00 | 0.00 | 100 | 1014.6 |
| 20260905102503 | 71 | 358 | 0.0 | 0.0 | 0.00 | 0.00 | 0.00 | 100 | 1014.6 |
| 20260905102006 | 71 | 358 | 0.0 | 0.0 | 0.00 | 0.00 | 0.00 | 100 | 1014.6 |
| 20260905101503 | 71 | 358 | 0.0 | 0.0 | 0.00 | 0.00 | 0.00 | 100 | 1014.5 |
| 20260905101004 | 71 | 358 | 0.0 | 0.0 | 0.00 | 0.00 | 0.00 | 100 | 1014.5 |
| 20260905100503 | 71 | 358 | 0.0 | 0.0 | 0.00 | 0.00 | 0.00 | 100 | 1014.5 |
| 20260905100003 | 71 | 358 | 0.0 | 0.0 | 0.00 | 0.00 | 0.00 | 100 | 1014.5 |
| 20260905095525 | 71 | 358 | 0.0 | 0.0 | 0.00 | 0.00 | 0.00 | 100 | 1014.5 |
| 20260905095004 | 71 | 358 | 0.0 | 0.0 | 0.00 | 0.00 | 0.00 | 100 | 1014.6 |
| 20260905094503 | 71 | 358 | 0.0 | 0.0 | 0.00 | 0.00 | 0.00 | 100 | 1014.6 |
| 20260905094004 | 71 | 358 | 0.0 | 0.0 | 0.00 | 0.00 | 0.00 | 100 | 1014.5 |
| 20260905093526 | 71 | 358 | 0.0 | 0.0 | 0.00 | 0.00 | 0.00 | 100 | 1014.5 |
| 20260905093005 | 71 | 358 | 0.0 | 0.0 | 0.00 | 0.00 | 0.00 | 100 | 1014.4 |
| 20260905092504 | 71 | 358 | 0.0 | 0.0 | 0.00 | 0.00 | 0.00 | 100 | 1014.4 |
| 20260905092003 | 71 | 358 | 0.0 | 0.0 | 0.00 | 0.00 | 0.00 | 100 | 1014.4 |
| 20260905091504 | 71 | 358 | 0.0 | 0.0 | 0.00 | 0.00 | 0.00 | 100 | 1014.4 |
| 20260905091003 | 71 | 358 | 0.0 | 0.0 | 0.00 | 0.00 | 0.00 | 100 | 1014.3 |
| 20260905090504 | 71 | 358 | 0.0 | 0.0 | 0.00 | 0.00 | 0.00 | 100 | 1014.3 |
| 20260905090025 | 71 | 358 | 0.0 | 0.0 | 0.00 | 0.00 | 0.00 | 100 | 1014.3 |
| 20260905085546 | 71 | 358 | 0.0 | 0.0 | 0.00 | 0.00 | 0.00 | 100 | 1014.3 |
| 20260905085003 | 71 | 358 | 0.0 | 0.0 | 0.00 | 0.00 | 0.00 | 100 | 1014.4 |
| 20260905084524 | 71 | 358 | 0.0 | 0.0 | 0.00 | 0.00 | 0.00 | 100 | 1014.4 |
| 20260905084003 | 72 | 358 | 0.0 | 0.0 | 0.00 | 0.00 | 0.00 | 100 | 1014.3 |
| 20260905083503 | 72 | 358 | 0.0 | 0.0 | 0.00 | 0.00 | 0.00 | 100 | 1014.3 |
| 20260905083024 | 72 | 358 | 0.0 | 0.0 | 0.00 | 0.00 | 0.00 | 100 | 1014.4 |
| 20260905082503 | 72 | 358 | 0.0 | 0.0 | 0.00 | 0.00 | 0.00 | 100 | 1014.4 |
| 20260905082003 | 72 | 358 | 0.0 | 0.0 | 0.00 | 0.00 | 0.00 | 100 | 1014.3 |
| 20260905081503 | 72 | 358 | 0.0 | 0.0 | 0.00 | 0.00 | 0.00 | 100 | 1014.3 |
| 20260905081003 | 72 | 358 | 0.0 | 0.0 | 0.00 | 0.00 | 0.00 | 100 | 1014.4 |
| 20260905080503 | 72 | 358 | 0.0 | 0.0 | 0.00 | 0.00 | 0.00 | 100 | 1014.2 |
| 20260905080026 | 72 | 358 | 0.0 | 0.0 | 0.00 | 0.00 | 0.00 | 100 | 1014.1 |
| 20260905075503 | 72 | 358 | 0.0 | 0.0 | 0.00 | 0.00 | 0.00 | 100 | 1014.1 |
| 20260905075025 | 72 | 358 | 0.0 | 0.0 | 0.00 | 0.00 | 0.00 | 100 | 1014.0 |
| 20260905074503 | 72 | 358 | 0.0 | 0.0 | 0.00 | 0.00 | 0.00 | 100 | 1014.0 |
| 20260905074004 | 72 | 358 | 0.0 | 0.0 | 0.00 | 0.00 | 0.00 | 100 | 1014.0 |
| 20260905073503 | 72 | 358 | 0.0 | 0.0 | 0.00 | 0.00 | 0.00 | 100 | 1014.1 |